<?xml version="1.0" encoding="UTF-8" standalone="no" ?>
<gpx xmlns="http://www.topografix.com/GPX/1/1" xmlns:xsi="http://www.w3.org/2001/XMLSchema-instance" xsi:schemaLocation="http://www.topografix.com/GPX/1/1 http://www.topografix.com/GPX/1/1/gpx.xsd" version="1.1" creator="VisuGPX - https://www.visugpx.com">
  <metadata>
    <name>12871547-tour st Georges-fromage-dragonniere</name>
  </metadata>
  <trk>
    <name><![CDATA[12871547-tour st Georges-fromage-dragonniere]]></name>
    <trkseg>
      <trkpt lat="46.94263" lon="-1.2931">
        <ele>51</ele>
        <time>2021-04-17T16:08:15Z</time>
      </trkpt>
      <trkpt lat="46.94271" lon="-1.29324">
        <ele>51</ele>
        <time>2021-04-17T16:08:32Z</time>
      </trkpt>
      <trkpt lat="46.94261" lon="-1.29341">
        <ele>50</ele>
        <time>2021-04-17T16:08:52Z</time>
      </trkpt>
      <trkpt lat="46.9428" lon="-1.29364">
        <ele>48</ele>
        <time>2021-04-17T16:09:25Z</time>
      </trkpt>
      <trkpt lat="46.94286" lon="-1.29376">
        <ele>46</ele>
        <time>2021-04-17T16:09:39Z</time>
      </trkpt>
      <trkpt lat="46.9423" lon="-1.29427">
        <ele>46</ele>
        <time>2021-04-17T16:11:07Z</time>
      </trkpt>
      <trkpt lat="46.94219" lon="-1.29442">
        <ele>45</ele>
        <time>2021-04-17T16:11:27Z</time>
      </trkpt>
      <trkpt lat="46.9417" lon="-1.29587">
        <ele>43</ele>
        <time>2021-04-17T16:13:54Z</time>
      </trkpt>
      <trkpt lat="46.94158" lon="-1.2961">
        <ele>42</ele>
        <time>2021-04-17T16:14:20Z</time>
      </trkpt>
      <trkpt lat="46.94092" lon="-1.29709">
        <ele>38</ele>
        <time>2021-04-17T16:16:26Z</time>
      </trkpt>
      <trkpt lat="46.94064" lon="-1.29669">
        <ele>40</ele>
        <time>2021-04-17T16:17:19Z</time>
      </trkpt>
      <trkpt lat="46.94052" lon="-1.29663">
        <ele>39</ele>
        <time>2021-04-17T16:17:36Z</time>
      </trkpt>
      <trkpt lat="46.94031" lon="-1.2963">
        <ele>39</ele>
        <time>2021-04-17T16:18:17Z</time>
      </trkpt>
      <trkpt lat="46.94045" lon="-1.29525">
        <ele>43</ele>
        <time>2021-04-17T16:19:54Z</time>
      </trkpt>
      <trkpt lat="46.94037" lon="-1.29517">
        <ele>43</ele>
        <time>2021-04-17T16:20:07Z</time>
      </trkpt>
      <trkpt lat="46.94014" lon="-1.29516">
        <ele>41</ele>
        <time>2021-04-17T16:20:38Z</time>
      </trkpt>
      <trkpt lat="46.94004" lon="-1.29505">
        <ele>40</ele>
        <time>2021-04-17T16:20:54Z</time>
      </trkpt>
      <trkpt lat="46.94" lon="-1.29495">
        <ele>40</ele>
        <time>2021-04-17T16:21:05Z</time>
      </trkpt>
      <trkpt lat="46.93991" lon="-1.29468">
        <ele>39</ele>
        <time>2021-04-17T16:21:32Z</time>
      </trkpt>
      <trkpt lat="46.93989" lon="-1.29446">
        <ele>39</ele>
        <time>2021-04-17T16:21:53Z</time>
      </trkpt>
      <trkpt lat="46.93983" lon="-1.29427">
        <ele>39</ele>
        <time>2021-04-17T16:22:12Z</time>
      </trkpt>
      <trkpt lat="46.93976" lon="-1.2938">
        <ele>40</ele>
        <time>2021-04-17T16:22:55Z</time>
      </trkpt>
      <trkpt lat="46.93974" lon="-1.29349">
        <ele>41</ele>
        <time>2021-04-17T16:23:24Z</time>
      </trkpt>
      <trkpt lat="46.93968" lon="-1.29326">
        <ele>41</ele>
        <time>2021-04-17T16:23:46Z</time>
      </trkpt>
      <trkpt lat="46.93965" lon="-1.29299">
        <ele>42</ele>
        <time>2021-04-17T16:24:11Z</time>
      </trkpt>
      <trkpt lat="46.93944" lon="-1.29257">
        <ele>40</ele>
        <time>2021-04-17T16:24:59Z</time>
      </trkpt>
      <trkpt lat="46.9394" lon="-1.29213">
        <ele>41</ele>
        <time>2021-04-17T16:25:39Z</time>
      </trkpt>
      <trkpt lat="46.93878" lon="-1.29073">
        <ele>42</ele>
        <time>2021-04-17T16:28:11Z</time>
      </trkpt>
      <trkpt lat="46.93859" lon="-1.29044">
        <ele>43</ele>
        <time>2021-04-17T16:28:48Z</time>
      </trkpt>
      <trkpt lat="46.93842" lon="-1.29027">
        <ele>43</ele>
        <time>2021-04-17T16:29:15Z</time>
      </trkpt>
      <trkpt lat="46.93824" lon="-1.29017">
        <ele>43</ele>
        <time>2021-04-17T16:29:41Z</time>
      </trkpt>
      <trkpt lat="46.93792" lon="-1.29007">
        <ele>42</ele>
        <time>2021-04-17T16:30:25Z</time>
      </trkpt>
      <trkpt lat="46.93779" lon="-1.29014">
        <ele>41</ele>
        <time>2021-04-17T16:30:43Z</time>
      </trkpt>
      <trkpt lat="46.9376" lon="-1.29017">
        <ele>40</ele>
        <time>2021-04-17T16:31:09Z</time>
      </trkpt>
      <trkpt lat="46.93737" lon="-1.29019">
        <ele>39</ele>
        <time>2021-04-17T16:31:39Z</time>
      </trkpt>
      <trkpt lat="46.93719" lon="-1.29013">
        <ele>39</ele>
        <time>2021-04-17T16:32:04Z</time>
      </trkpt>
      <trkpt lat="46.93698" lon="-1.29019">
        <ele>38</ele>
        <time>2021-04-17T16:32:33Z</time>
      </trkpt>
      <trkpt lat="46.93689" lon="-1.29031">
        <ele>38</ele>
        <time>2021-04-17T16:32:49Z</time>
      </trkpt>
      <trkpt lat="46.93666" lon="-1.29039">
        <ele>37</ele>
        <time>2021-04-17T16:33:20Z</time>
      </trkpt>
      <trkpt lat="46.93648" lon="-1.29057">
        <ele>36</ele>
        <time>2021-04-17T16:33:49Z</time>
      </trkpt>
      <trkpt lat="46.93634" lon="-1.29082">
        <ele>34</ele>
        <time>2021-04-17T16:34:19Z</time>
      </trkpt>
      <trkpt lat="46.93624" lon="-1.29094">
        <ele>34</ele>
        <time>2021-04-17T16:34:36Z</time>
      </trkpt>
      <trkpt lat="46.9362" lon="-1.2913">
        <ele>34</ele>
        <time>2021-04-17T16:35:09Z</time>
      </trkpt>
      <trkpt lat="46.93615" lon="-1.29151">
        <ele>34</ele>
        <time>2021-04-17T16:35:30Z</time>
      </trkpt>
      <trkpt lat="46.93599" lon="-1.2916">
        <ele>33</ele>
        <time>2021-04-17T16:35:52Z</time>
      </trkpt>
      <trkpt lat="46.93592" lon="-1.29158">
        <ele>33</ele>
        <time>2021-04-17T16:36:02Z</time>
      </trkpt>
      <trkpt lat="46.93579" lon="-1.29148">
        <ele>33</ele>
        <time>2021-04-17T16:36:22Z</time>
      </trkpt>
      <trkpt lat="46.93575" lon="-1.29133">
        <ele>33</ele>
        <time>2021-04-17T16:36:36Z</time>
      </trkpt>
      <trkpt lat="46.9357" lon="-1.29087">
        <ele>33</ele>
        <time>2021-04-17T16:37:19Z</time>
      </trkpt>
      <trkpt lat="46.93572" lon="-1.29063">
        <ele>34</ele>
        <time>2021-04-17T16:37:41Z</time>
      </trkpt>
      <trkpt lat="46.93568" lon="-1.29041">
        <ele>34</ele>
        <time>2021-04-17T16:38:01Z</time>
      </trkpt>
      <trkpt lat="46.93516" lon="-1.29029">
        <ele>34</ele>
        <time>2021-04-17T16:39:12Z</time>
      </trkpt>
      <trkpt lat="46.93503" lon="-1.29021">
        <ele>34</ele>
        <time>2021-04-17T16:39:31Z</time>
      </trkpt>
      <trkpt lat="46.93505" lon="-1.29008">
        <ele>33</ele>
        <time>2021-04-17T16:39:43Z</time>
      </trkpt>
      <trkpt lat="46.93508" lon="-1.29007">
        <ele>33</ele>
        <time>2021-04-17T16:39:47Z</time>
      </trkpt>
      <trkpt lat="46.93506" lon="-1.29003">
        <ele>33</ele>
        <time>2021-04-17T16:39:51Z</time>
      </trkpt>
      <trkpt lat="46.93489" lon="-1.29005">
        <ele>34</ele>
        <time>2021-04-17T16:40:14Z</time>
      </trkpt>
      <trkpt lat="46.93483" lon="-1.28998">
        <ele>34</ele>
        <time>2021-04-17T16:40:24Z</time>
      </trkpt>
      <trkpt lat="46.93499" lon="-1.28975">
        <ele>33</ele>
        <time>2021-04-17T16:40:54Z</time>
      </trkpt>
      <trkpt lat="46.93503" lon="-1.28965">
        <ele>34</ele>
        <time>2021-04-17T16:41:05Z</time>
      </trkpt>
      <trkpt lat="46.9351" lon="-1.28958">
        <ele>34</ele>
        <time>2021-04-17T16:41:16Z</time>
      </trkpt>
      <trkpt lat="46.93513" lon="-1.2894">
        <ele>34</ele>
        <time>2021-04-17T16:41:33Z</time>
      </trkpt>
      <trkpt lat="46.93519" lon="-1.28931">
        <ele>35</ele>
        <time>2021-04-17T16:41:44Z</time>
      </trkpt>
      <trkpt lat="46.93519" lon="-1.28925">
        <ele>35</ele>
        <time>2021-04-17T16:41:50Z</time>
      </trkpt>
      <trkpt lat="46.93512" lon="-1.28888">
        <ele>35</ele>
        <time>2021-04-17T16:42:25Z</time>
      </trkpt>
      <trkpt lat="46.93505" lon="-1.28871">
        <ele>35</ele>
        <time>2021-04-17T16:42:43Z</time>
      </trkpt>
      <trkpt lat="46.93486" lon="-1.28845">
        <ele>35</ele>
        <time>2021-04-17T16:43:18Z</time>
      </trkpt>
      <trkpt lat="46.93471" lon="-1.28806">
        <ele>34</ele>
        <time>2021-04-17T16:43:58Z</time>
      </trkpt>
      <trkpt lat="46.93473" lon="-1.28772">
        <ele>34</ele>
        <time>2021-04-17T16:44:30Z</time>
      </trkpt>
      <trkpt lat="46.93482" lon="-1.28719">
        <ele>36</ele>
        <time>2021-04-17T16:45:19Z</time>
      </trkpt>
      <trkpt lat="46.93472" lon="-1.28661">
        <ele>37</ele>
        <time>2021-04-17T16:46:14Z</time>
      </trkpt>
      <trkpt lat="46.93462" lon="-1.28622">
        <ele>37</ele>
        <time>2021-04-17T16:46:52Z</time>
      </trkpt>
      <trkpt lat="46.9345" lon="-1.28545">
        <ele>38</ele>
        <time>2021-04-17T16:48:04Z</time>
      </trkpt>
      <trkpt lat="46.93421" lon="-1.28452">
        <ele>38</ele>
        <time>2021-04-17T16:49:37Z</time>
      </trkpt>
      <trkpt lat="46.93405" lon="-1.28414">
        <ele>39</ele>
        <time>2021-04-17T16:50:18Z</time>
      </trkpt>
      <trkpt lat="46.93403" lon="-1.28397">
        <ele>40</ele>
        <time>2021-04-17T16:50:33Z</time>
      </trkpt>
      <trkpt lat="46.93389" lon="-1.28342">
        <ele>42</ele>
        <time>2021-04-17T16:51:27Z</time>
      </trkpt>
      <trkpt lat="46.93368" lon="-1.28286">
        <ele>45</ele>
        <time>2021-04-17T16:52:25Z</time>
      </trkpt>
      <trkpt lat="46.93366" lon="-1.2827">
        <ele>46</ele>
        <time>2021-04-17T16:52:40Z</time>
      </trkpt>
      <trkpt lat="46.93338" lon="-1.28245">
        <ele>47</ele>
        <time>2021-04-17T16:53:24Z</time>
      </trkpt>
      <trkpt lat="46.93293" lon="-1.28218">
        <ele>48</ele>
        <time>2021-04-17T16:54:29Z</time>
      </trkpt>
      <trkpt lat="46.93274" lon="-1.282">
        <ele>50</ele>
        <time>2021-04-17T16:54:59Z</time>
      </trkpt>
      <trkpt lat="46.93268" lon="-1.28197">
        <ele>50</ele>
        <time>2021-04-17T16:55:07Z</time>
      </trkpt>
      <trkpt lat="46.93247" lon="-1.28198">
        <ele>49</ele>
        <time>2021-04-17T16:55:35Z</time>
      </trkpt>
      <trkpt lat="46.93227" lon="-1.28215">
        <ele>48</ele>
        <time>2021-04-17T16:56:06Z</time>
      </trkpt>
      <trkpt lat="46.93213" lon="-1.28215">
        <ele>48</ele>
        <time>2021-04-17T16:56:25Z</time>
      </trkpt>
      <trkpt lat="46.93204" lon="-1.2824">
        <ele>46</ele>
        <time>2021-04-17T16:56:50Z</time>
      </trkpt>
      <trkpt lat="46.93186" lon="-1.28265">
        <ele>45</ele>
        <time>2021-04-17T16:57:24Z</time>
      </trkpt>
      <trkpt lat="46.9317" lon="-1.28285">
        <ele>43</ele>
        <time>2021-04-17T16:57:52Z</time>
      </trkpt>
      <trkpt lat="46.93133" lon="-1.28321">
        <ele>41</ele>
        <time>2021-04-17T16:58:51Z</time>
      </trkpt>
      <trkpt lat="46.93003" lon="-1.28373">
        <ele>39</ele>
        <time>2021-04-17T17:01:51Z</time>
      </trkpt>
      <trkpt lat="46.92969" lon="-1.28384">
        <ele>38</ele>
        <time>2021-04-17T17:02:37Z</time>
      </trkpt>
      <trkpt lat="46.92967" lon="-1.28373">
        <ele>39</ele>
        <time>2021-04-17T17:02:48Z</time>
      </trkpt>
      <trkpt lat="46.92948" lon="-1.28357">
        <ele>39</ele>
        <time>2021-04-17T17:03:17Z</time>
      </trkpt>
      <trkpt lat="46.9292" lon="-1.2834">
        <ele>40</ele>
        <time>2021-04-17T17:03:57Z</time>
      </trkpt>
      <trkpt lat="46.92579" lon="-1.28088">
        <ele>36</ele>
        <time>2021-04-17T17:12:27Z</time>
      </trkpt>
      <trkpt lat="46.92501" lon="-1.28036">
        <ele>37</ele>
        <time>2021-04-17T17:14:21Z</time>
      </trkpt>
      <trkpt lat="46.92482" lon="-1.28018">
        <ele>37</ele>
        <time>2021-04-17T17:14:52Z</time>
      </trkpt>
      <trkpt lat="46.92471" lon="-1.27995">
        <ele>37</ele>
        <time>2021-04-17T17:15:17Z</time>
      </trkpt>
      <trkpt lat="46.92464" lon="-1.27965">
        <ele>38</ele>
        <time>2021-04-17T17:15:46Z</time>
      </trkpt>
      <trkpt lat="46.92423" lon="-1.27293">
        <ele>52</ele>
        <time>2021-04-17T17:26:01Z</time>
      </trkpt>
      <trkpt lat="46.92339" lon="-1.2733">
        <ele>41</ele>
        <time>2021-04-17T17:27:58Z</time>
      </trkpt>
      <trkpt lat="46.92273" lon="-1.27342">
        <ele>39</ele>
        <time>2021-04-17T17:29:27Z</time>
      </trkpt>
      <trkpt lat="46.92255" lon="-1.2734">
        <ele>39</ele>
        <time>2021-04-17T17:29:51Z</time>
      </trkpt>
      <trkpt lat="46.92243" lon="-1.27335">
        <ele>40</ele>
        <time>2021-04-17T17:30:08Z</time>
      </trkpt>
      <trkpt lat="46.92232" lon="-1.27325">
        <ele>42</ele>
        <time>2021-04-17T17:30:25Z</time>
      </trkpt>
      <trkpt lat="46.92222" lon="-1.273">
        <ele>44</ele>
        <time>2021-04-17T17:30:51Z</time>
      </trkpt>
      <trkpt lat="46.92211" lon="-1.27235">
        <ele>45</ele>
        <time>2021-04-17T17:31:52Z</time>
      </trkpt>
      <trkpt lat="46.92204" lon="-1.27216">
        <ele>46</ele>
        <time>2021-04-17T17:32:12Z</time>
      </trkpt>
      <trkpt lat="46.92196" lon="-1.27206">
        <ele>46</ele>
        <time>2021-04-17T17:32:26Z</time>
      </trkpt>
      <trkpt lat="46.92179" lon="-1.27196">
        <ele>47</ele>
        <time>2021-04-17T17:32:50Z</time>
      </trkpt>
      <trkpt lat="46.92154" lon="-1.27188">
        <ele>48</ele>
        <time>2021-04-17T17:33:25Z</time>
      </trkpt>
      <trkpt lat="46.92155" lon="-1.27174">
        <ele>48</ele>
        <time>2021-04-17T17:33:37Z</time>
      </trkpt>
      <trkpt lat="46.92149" lon="-1.27159">
        <ele>48</ele>
        <time>2021-04-17T17:33:53Z</time>
      </trkpt>
      <trkpt lat="46.92124" lon="-1.27119">
        <ele>45</ele>
        <time>2021-04-17T17:34:43Z</time>
      </trkpt>
      <trkpt lat="46.92077" lon="-1.27063">
        <ele>44</ele>
        <time>2021-04-17T17:36:04Z</time>
      </trkpt>
      <trkpt lat="46.92026" lon="-1.27044">
        <ele>46</ele>
        <time>2021-04-17T17:37:14Z</time>
      </trkpt>
      <trkpt lat="46.92007" lon="-1.27024">
        <ele>47</ele>
        <time>2021-04-17T17:37:45Z</time>
      </trkpt>
      <trkpt lat="46.91989" lon="-1.26987">
        <ele>49</ele>
        <time>2021-04-17T17:38:26Z</time>
      </trkpt>
      <trkpt lat="46.91986" lon="-1.26972">
        <ele>49</ele>
        <time>2021-04-17T17:38:41Z</time>
      </trkpt>
      <trkpt lat="46.91987" lon="-1.26939">
        <ele>50</ele>
        <time>2021-04-17T17:39:11Z</time>
      </trkpt>
      <trkpt lat="46.91971" lon="-1.26882">
        <ele>51</ele>
        <time>2021-04-17T17:40:07Z</time>
      </trkpt>
      <trkpt lat="46.9196" lon="-1.26831">
        <ele>50</ele>
        <time>2021-04-17T17:40:56Z</time>
      </trkpt>
      <trkpt lat="46.91927" lon="-1.26764">
        <ele>50</ele>
        <time>2021-04-17T17:42:11Z</time>
      </trkpt>
      <trkpt lat="46.9191" lon="-1.26743">
        <ele>50</ele>
        <time>2021-04-17T17:42:41Z</time>
      </trkpt>
      <trkpt lat="46.91873" lon="-1.26712">
        <ele>49</ele>
        <time>2021-04-17T17:43:38Z</time>
      </trkpt>
      <trkpt lat="46.91861" lon="-1.26699">
        <ele>49</ele>
        <time>2021-04-17T17:43:57Z</time>
      </trkpt>
      <trkpt lat="46.9184" lon="-1.26657">
        <ele>48</ele>
        <time>2021-04-17T17:44:45Z</time>
      </trkpt>
      <trkpt lat="46.9182" lon="-1.26609">
        <ele>48</ele>
        <time>2021-04-17T17:45:36Z</time>
      </trkpt>
      <trkpt lat="46.9181" lon="-1.26595">
        <ele>48</ele>
        <time>2021-04-17T17:45:55Z</time>
      </trkpt>
      <trkpt lat="46.91798" lon="-1.26589">
        <ele>48</ele>
        <time>2021-04-17T17:46:12Z</time>
      </trkpt>
      <trkpt lat="46.91791" lon="-1.2659">
        <ele>49</ele>
        <time>2021-04-17T17:46:21Z</time>
      </trkpt>
      <trkpt lat="46.91775" lon="-1.26603">
        <ele>51</ele>
        <time>2021-04-17T17:46:45Z</time>
      </trkpt>
      <trkpt lat="46.91772" lon="-1.26598">
        <ele>50</ele>
        <time>2021-04-17T17:46:51Z</time>
      </trkpt>
      <trkpt lat="46.91693" lon="-1.26285">
        <ele>42</ele>
        <time>2021-04-17T17:51:56Z</time>
      </trkpt>
      <trkpt lat="46.91687" lon="-1.26281">
        <ele>42</ele>
        <time>2021-04-17T17:52:04Z</time>
      </trkpt>
      <trkpt lat="46.91609" lon="-1.26322">
        <ele>45</ele>
        <time>2021-04-17T17:53:55Z</time>
      </trkpt>
      <trkpt lat="46.91535" lon="-1.26354">
        <ele>46</ele>
        <time>2021-04-17T17:55:38Z</time>
      </trkpt>
      <trkpt lat="46.91531" lon="-1.26353">
        <ele>46</ele>
        <time>2021-04-17T17:55:43Z</time>
      </trkpt>
      <trkpt lat="46.9151" lon="-1.26254">
        <ele>44</ele>
        <time>2021-04-17T17:57:18Z</time>
      </trkpt>
      <trkpt lat="46.9153" lon="-1.26183">
        <ele>41</ele>
        <time>2021-04-17T17:58:28Z</time>
      </trkpt>
      <trkpt lat="46.91573" lon="-1.26052">
        <ele>36</ele>
        <time>2021-04-17T18:00:40Z</time>
      </trkpt>
      <trkpt lat="46.91587" lon="-1.26011">
        <ele>35</ele>
        <time>2021-04-17T18:01:22Z</time>
      </trkpt>
      <trkpt lat="46.91609" lon="-1.25973">
        <ele>38</ele>
        <time>2021-04-17T18:02:07Z</time>
      </trkpt>
      <trkpt lat="46.91617" lon="-1.25935">
        <ele>41</ele>
        <time>2021-04-17T18:02:44Z</time>
      </trkpt>
      <trkpt lat="46.91623" lon="-1.25943">
        <ele>41</ele>
        <time>2021-04-17T18:02:55Z</time>
      </trkpt>
      <trkpt lat="46.91646" lon="-1.25949">
        <ele>42</ele>
        <time>2021-04-17T18:03:26Z</time>
      </trkpt>
      <trkpt lat="46.91651" lon="-1.25946">
        <ele>42</ele>
        <time>2021-04-17T18:03:33Z</time>
      </trkpt>
      <trkpt lat="46.91658" lon="-1.25951">
        <ele>42</ele>
        <time>2021-04-17T18:03:43Z</time>
      </trkpt>
      <trkpt lat="46.91692" lon="-1.2596">
        <ele>44</ele>
        <time>2021-04-17T18:04:29Z</time>
      </trkpt>
      <trkpt lat="46.91714" lon="-1.25971">
        <ele>45</ele>
        <time>2021-04-17T18:05:00Z</time>
      </trkpt>
      <trkpt lat="46.91738" lon="-1.25987">
        <ele>45</ele>
        <time>2021-04-17T18:05:36Z</time>
      </trkpt>
      <trkpt lat="46.91766" lon="-1.25999">
        <ele>46</ele>
        <time>2021-04-17T18:06:15Z</time>
      </trkpt>
      <trkpt lat="46.91791" lon="-1.26019">
        <ele>46</ele>
        <time>2021-04-17T18:06:53Z</time>
      </trkpt>
      <trkpt lat="46.91833" lon="-1.26047">
        <ele>46</ele>
        <time>2021-04-17T18:07:54Z</time>
      </trkpt>
      <trkpt lat="46.91881" lon="-1.26087">
        <ele>45</ele>
        <time>2021-04-17T18:09:08Z</time>
      </trkpt>
      <trkpt lat="46.91894" lon="-1.26095">
        <ele>45</ele>
        <time>2021-04-17T18:09:27Z</time>
      </trkpt>
      <trkpt lat="46.9194" lon="-1.26139">
        <ele>44</ele>
        <time>2021-04-17T18:10:40Z</time>
      </trkpt>
      <trkpt lat="46.91982" lon="-1.26184">
        <ele>44</ele>
        <time>2021-04-17T18:11:50Z</time>
      </trkpt>
      <trkpt lat="46.92081" lon="-1.26302">
        <ele>44</ele>
        <time>2021-04-17T18:14:40Z</time>
      </trkpt>
      <trkpt lat="46.92128" lon="-1.26377">
        <ele>42</ele>
        <time>2021-04-17T18:16:13Z</time>
      </trkpt>
      <trkpt lat="46.92164" lon="-1.26415">
        <ele>43</ele>
        <time>2021-04-17T18:17:12Z</time>
      </trkpt>
      <trkpt lat="46.92173" lon="-1.26433">
        <ele>43</ele>
        <time>2021-04-17T18:17:32Z</time>
      </trkpt>
      <trkpt lat="46.92189" lon="-1.26503">
        <ele>42</ele>
        <time>2021-04-17T18:18:39Z</time>
      </trkpt>
      <trkpt lat="46.92343" lon="-1.26641">
        <ele>53</ele>
        <time>2021-04-17T18:22:40Z</time>
      </trkpt>
      <trkpt lat="46.925" lon="-1.26788">
        <ele>60</ele>
        <time>2021-04-17T18:26:49Z</time>
      </trkpt>
      <trkpt lat="46.92604" lon="-1.26906">
        <ele>61</ele>
        <time>2021-04-17T18:29:45Z</time>
      </trkpt>
      <trkpt lat="46.92608" lon="-1.26926">
        <ele>62</ele>
        <time>2021-04-17T18:30:04Z</time>
      </trkpt>
      <trkpt lat="46.92618" lon="-1.26929">
        <ele>62</ele>
        <time>2021-04-17T18:30:17Z</time>
      </trkpt>
      <trkpt lat="46.92653" lon="-1.26984">
        <ele>64</ele>
        <time>2021-04-17T18:31:26Z</time>
      </trkpt>
      <trkpt lat="46.92664" lon="-1.26968">
        <ele>64</ele>
        <time>2021-04-17T18:31:46Z</time>
      </trkpt>
      <trkpt lat="46.92675" lon="-1.2694">
        <ele>63</ele>
        <time>2021-04-17T18:32:16Z</time>
      </trkpt>
      <trkpt lat="46.92701" lon="-1.26845">
        <ele>63</ele>
        <time>2021-04-17T18:33:49Z</time>
      </trkpt>
      <trkpt lat="46.92757" lon="-1.26828">
        <ele>64</ele>
        <time>2021-04-17T18:35:06Z</time>
      </trkpt>
      <trkpt lat="46.92777" lon="-1.26817">
        <ele>65</ele>
        <time>2021-04-17T18:35:34Z</time>
      </trkpt>
      <trkpt lat="46.92817" lon="-1.26774">
        <ele>65</ele>
        <time>2021-04-17T18:36:40Z</time>
      </trkpt>
      <trkpt lat="46.92856" lon="-1.26662">
        <ele>66</ele>
        <time>2021-04-17T18:38:35Z</time>
      </trkpt>
      <trkpt lat="46.92886" lon="-1.26588">
        <ele>67</ele>
        <time>2021-04-17T18:39:53Z</time>
      </trkpt>
      <trkpt lat="46.92904" lon="-1.2653">
        <ele>68</ele>
        <time>2021-04-17T18:40:51Z</time>
      </trkpt>
      <trkpt lat="46.92907" lon="-1.2648">
        <ele>68</ele>
        <time>2021-04-17T18:41:37Z</time>
      </trkpt>
      <trkpt lat="46.92911" lon="-1.26472">
        <ele>68</ele>
        <time>2021-04-17T18:41:46Z</time>
      </trkpt>
      <trkpt lat="46.93004" lon="-1.26431">
        <ele>69</ele>
        <time>2021-04-17T18:43:56Z</time>
      </trkpt>
      <trkpt lat="46.93059" lon="-1.26535">
        <ele>68</ele>
        <time>2021-04-17T18:45:56Z</time>
      </trkpt>
      <trkpt lat="46.93339" lon="-1.26303">
        <ele>68</ele>
        <time>2021-04-17T18:53:05Z</time>
      </trkpt>
      <trkpt lat="46.93572" lon="-1.26162">
        <ele>64</ele>
        <time>2021-04-17T18:58:41Z</time>
      </trkpt>
      <trkpt lat="46.93509" lon="-1.25941">
        <ele>67</ele>
        <time>2021-04-17T19:02:20Z</time>
      </trkpt>
      <trkpt lat="46.93275" lon="-1.25406">
        <ele>65</ele>
        <time>2021-04-17T19:11:58Z</time>
      </trkpt>
      <trkpt lat="46.93241" lon="-1.25276">
        <ele>65</ele>
        <time>2021-04-17T19:14:05Z</time>
      </trkpt>
      <trkpt lat="46.9311" lon="-1.24955">
        <ele>66</ele>
        <time>2021-04-17T19:19:46Z</time>
      </trkpt>
      <trkpt lat="46.93042" lon="-1.24743">
        <ele>65</ele>
        <time>2021-04-17T19:23:20Z</time>
      </trkpt>
      <trkpt lat="46.93012" lon="-1.24488">
        <ele>63</ele>
        <time>2021-04-17T19:27:15Z</time>
      </trkpt>
      <trkpt lat="46.92947" lon="-1.24266">
        <ele>54</ele>
        <time>2021-04-17T19:30:55Z</time>
      </trkpt>
      <trkpt lat="46.92939" lon="-1.24247">
        <ele>53</ele>
        <time>2021-04-17T19:31:16Z</time>
      </trkpt>
      <trkpt lat="46.92876" lon="-1.24238">
        <ele>54</ele>
        <time>2021-04-17T19:32:40Z</time>
      </trkpt>
      <trkpt lat="46.92847" lon="-1.24223">
        <ele>56</ele>
        <time>2021-04-17T19:33:21Z</time>
      </trkpt>
      <trkpt lat="46.92823" lon="-1.24206">
        <ele>57</ele>
        <time>2021-04-17T19:33:57Z</time>
      </trkpt>
      <trkpt lat="46.92808" lon="-1.24167">
        <ele>58</ele>
        <time>2021-04-17T19:34:38Z</time>
      </trkpt>
      <trkpt lat="46.92801" lon="-1.24136">
        <ele>59</ele>
        <time>2021-04-17T19:35:07Z</time>
      </trkpt>
      <trkpt lat="46.92804" lon="-1.24044">
        <ele>61</ele>
        <time>2021-04-17T19:36:31Z</time>
      </trkpt>
      <trkpt lat="46.92809" lon="-1.23978">
        <ele>63</ele>
        <time>2021-04-17T19:37:32Z</time>
      </trkpt>
      <trkpt lat="46.92844" lon="-1.23935">
        <ele>64</ele>
        <time>2021-04-17T19:38:33Z</time>
      </trkpt>
      <trkpt lat="46.92855" lon="-1.23909">
        <ele>64</ele>
        <time>2021-04-17T19:39:01Z</time>
      </trkpt>
      <trkpt lat="46.92854" lon="-1.23892">
        <ele>64</ele>
        <time>2021-04-17T19:39:16Z</time>
      </trkpt>
      <trkpt lat="46.92882" lon="-1.23864">
        <ele>63</ele>
        <time>2021-04-17T19:40:02Z</time>
      </trkpt>
      <trkpt lat="46.92917" lon="-1.23848">
        <ele>62</ele>
        <time>2021-04-17T19:40:50Z</time>
      </trkpt>
      <trkpt lat="46.92953" lon="-1.23868">
        <ele>61</ele>
        <time>2021-04-17T19:41:42Z</time>
      </trkpt>
      <trkpt lat="46.92959" lon="-1.239">
        <ele>62</ele>
        <time>2021-04-17T19:42:12Z</time>
      </trkpt>
      <trkpt lat="46.92961" lon="-1.23929">
        <ele>62</ele>
        <time>2021-04-17T19:42:39Z</time>
      </trkpt>
      <trkpt lat="46.9297" lon="-1.23958">
        <ele>61</ele>
        <time>2021-04-17T19:43:08Z</time>
      </trkpt>
      <trkpt lat="46.92987" lon="-1.23999">
        <ele>60</ele>
        <time>2021-04-17T19:43:51Z</time>
      </trkpt>
      <trkpt lat="46.93044" lon="-1.23996">
        <ele>53</ele>
        <time>2021-04-17T19:45:07Z</time>
      </trkpt>
      <trkpt lat="46.93111" lon="-1.24011">
        <ele>45</ele>
        <time>2021-04-17T19:46:38Z</time>
      </trkpt>
      <trkpt lat="46.93117" lon="-1.24019">
        <ele>44</ele>
        <time>2021-04-17T19:46:49Z</time>
      </trkpt>
      <trkpt lat="46.93113" lon="-1.24045">
        <ele>43</ele>
        <time>2021-04-17T19:47:13Z</time>
      </trkpt>
      <trkpt lat="46.93115" lon="-1.24077">
        <ele>42</ele>
        <time>2021-04-17T19:47:42Z</time>
      </trkpt>
      <trkpt lat="46.93131" lon="-1.24161">
        <ele>44</ele>
        <time>2021-04-17T19:49:02Z</time>
      </trkpt>
      <trkpt lat="46.93145" lon="-1.2419">
        <ele>46</ele>
        <time>2021-04-17T19:49:34Z</time>
      </trkpt>
      <trkpt lat="46.9316" lon="-1.24209">
        <ele>47</ele>
        <time>2021-04-17T19:50:01Z</time>
      </trkpt>
      <trkpt lat="46.93183" lon="-1.24231">
        <ele>48</ele>
        <time>2021-04-17T19:50:37Z</time>
      </trkpt>
      <trkpt lat="46.93212" lon="-1.24257">
        <ele>49</ele>
        <time>2021-04-17T19:51:23Z</time>
      </trkpt>
      <trkpt lat="46.93239" lon="-1.24274">
        <ele>49</ele>
        <time>2021-04-17T19:52:02Z</time>
      </trkpt>
      <trkpt lat="46.93318" lon="-1.24308">
        <ele>50</ele>
        <time>2021-04-17T19:53:52Z</time>
      </trkpt>
      <trkpt lat="46.93377" lon="-1.24325">
        <ele>49</ele>
        <time>2021-04-17T19:55:12Z</time>
      </trkpt>
      <trkpt lat="46.9343" lon="-1.24346">
        <ele>49</ele>
        <time>2021-04-17T19:56:25Z</time>
      </trkpt>
      <trkpt lat="46.93488" lon="-1.24362">
        <ele>50</ele>
        <time>2021-04-17T19:57:44Z</time>
      </trkpt>
      <trkpt lat="46.93517" lon="-1.24376">
        <ele>51</ele>
        <time>2021-04-17T19:58:25Z</time>
      </trkpt>
      <trkpt lat="46.93543" lon="-1.24383">
        <ele>49</ele>
        <time>2021-04-17T19:59:00Z</time>
      </trkpt>
      <trkpt lat="46.93562" lon="-1.24402">
        <ele>48</ele>
        <time>2021-04-17T19:59:31Z</time>
      </trkpt>
      <trkpt lat="46.93578" lon="-1.24428">
        <ele>46</ele>
        <time>2021-04-17T20:00:03Z</time>
      </trkpt>
      <trkpt lat="46.93592" lon="-1.24463">
        <ele>47</ele>
        <time>2021-04-17T20:00:40Z</time>
      </trkpt>
      <trkpt lat="46.93583" lon="-1.24455">
        <ele>47</ele>
        <time>2021-04-17T20:00:54Z</time>
      </trkpt>
      <trkpt lat="46.9352" lon="-1.24435">
        <ele>54</ele>
        <time>2021-04-17T20:02:20Z</time>
      </trkpt>
      <trkpt lat="46.93498" lon="-1.24438">
        <ele>57</ele>
        <time>2021-04-17T20:02:49Z</time>
      </trkpt>
      <trkpt lat="46.93483" lon="-1.24443">
        <ele>57</ele>
        <time>2021-04-17T20:03:10Z</time>
      </trkpt>
      <trkpt lat="46.93451" lon="-1.24463">
        <ele>58</ele>
        <time>2021-04-17T20:03:56Z</time>
      </trkpt>
      <trkpt lat="46.93404" lon="-1.24484">
        <ele>59</ele>
        <time>2021-04-17T20:05:02Z</time>
      </trkpt>
      <trkpt lat="46.93558" lon="-1.24903">
        <ele>51</ele>
        <time>2021-04-17T20:12:15Z</time>
      </trkpt>
      <trkpt lat="46.93599" lon="-1.25025">
        <ele>49</ele>
        <time>2021-04-17T20:14:19Z</time>
      </trkpt>
      <trkpt lat="46.93328" lon="-1.25234">
        <ele>63</ele>
        <time>2021-04-17T20:21:08Z</time>
      </trkpt>
      <trkpt lat="46.93339" lon="-1.25267">
        <ele>63</ele>
        <time>2021-04-17T20:21:41Z</time>
      </trkpt>
      <trkpt lat="46.93385" lon="-1.25372">
        <ele>63</ele>
        <time>2021-04-17T20:23:35Z</time>
      </trkpt>
      <trkpt lat="46.93425" lon="-1.25472">
        <ele>62</ele>
        <time>2021-04-17T20:25:21Z</time>
      </trkpt>
      <trkpt lat="46.93434" lon="-1.25513">
        <ele>62</ele>
        <time>2021-04-17T20:26:00Z</time>
      </trkpt>
      <trkpt lat="46.93433" lon="-1.25558">
        <ele>62</ele>
        <time>2021-04-17T20:26:41Z</time>
      </trkpt>
      <trkpt lat="46.93435" lon="-1.25587">
        <ele>63</ele>
        <time>2021-04-17T20:27:07Z</time>
      </trkpt>
      <trkpt lat="46.93449" lon="-1.25607">
        <ele>63</ele>
        <time>2021-04-17T20:27:34Z</time>
      </trkpt>
      <trkpt lat="46.93475" lon="-1.25631">
        <ele>63</ele>
        <time>2021-04-17T20:28:15Z</time>
      </trkpt>
      <trkpt lat="46.93493" lon="-1.25618">
        <ele>62</ele>
        <time>2021-04-17T20:28:41Z</time>
      </trkpt>
      <trkpt lat="46.93563" lon="-1.25516">
        <ele>55</ele>
        <time>2021-04-17T20:30:53Z</time>
      </trkpt>
      <trkpt lat="46.93584" lon="-1.25506">
        <ele>53</ele>
        <time>2021-04-17T20:31:23Z</time>
      </trkpt>
      <trkpt lat="46.93613" lon="-1.25509">
        <ele>53</ele>
        <time>2021-04-17T20:32:01Z</time>
      </trkpt>
      <trkpt lat="46.93642" lon="-1.25501">
        <ele>52</ele>
        <time>2021-04-17T20:32:41Z</time>
      </trkpt>
      <trkpt lat="46.93666" lon="-1.25503">
        <ele>52</ele>
        <time>2021-04-17T20:33:13Z</time>
      </trkpt>
      <trkpt lat="46.93685" lon="-1.25498">
        <ele>50</ele>
        <time>2021-04-17T20:33:39Z</time>
      </trkpt>
      <trkpt lat="46.93724" lon="-1.25463">
        <ele>44</ele>
        <time>2021-04-17T20:34:40Z</time>
      </trkpt>
      <trkpt lat="46.93774" lon="-1.25458">
        <ele>41</ele>
        <time>2021-04-17T20:35:47Z</time>
      </trkpt>
      <trkpt lat="46.93825" lon="-1.25462">
        <ele>41</ele>
        <time>2021-04-17T20:36:55Z</time>
      </trkpt>
      <trkpt lat="46.93851" lon="-1.25456">
        <ele>42</ele>
        <time>2021-04-17T20:37:30Z</time>
      </trkpt>
      <trkpt lat="46.93875" lon="-1.25413">
        <ele>44</ele>
        <time>2021-04-17T20:38:20Z</time>
      </trkpt>
      <trkpt lat="46.93888" lon="-1.2538">
        <ele>45</ele>
        <time>2021-04-17T20:38:55Z</time>
      </trkpt>
      <trkpt lat="46.93922" lon="-1.25316">
        <ele>49</ele>
        <time>2021-04-17T20:40:09Z</time>
      </trkpt>
      <trkpt lat="46.93979" lon="-1.25222">
        <ele>53</ele>
        <time>2021-04-17T20:42:04Z</time>
      </trkpt>
      <trkpt lat="46.94017" lon="-1.25133">
        <ele>54</ele>
        <time>2021-04-17T20:43:39Z</time>
      </trkpt>
      <trkpt lat="46.94073" lon="-1.25018">
        <ele>57</ele>
        <time>2021-04-17T20:45:48Z</time>
      </trkpt>
      <trkpt lat="46.94077" lon="-1.24975">
        <ele>57</ele>
        <time>2021-04-17T20:46:27Z</time>
      </trkpt>
      <trkpt lat="46.94106" lon="-1.24921">
        <ele>58</ele>
        <time>2021-04-17T20:47:30Z</time>
      </trkpt>
      <trkpt lat="46.94139" lon="-1.24887">
        <ele>58</ele>
        <time>2021-04-17T20:48:24Z</time>
      </trkpt>
      <trkpt lat="46.94177" lon="-1.24858">
        <ele>59</ele>
        <time>2021-04-17T20:49:21Z</time>
      </trkpt>
      <trkpt lat="46.94202" lon="-1.24823">
        <ele>59</ele>
        <time>2021-04-17T20:50:07Z</time>
      </trkpt>
      <trkpt lat="46.94217" lon="-1.24793">
        <ele>59</ele>
        <time>2021-04-17T20:50:41Z</time>
      </trkpt>
      <trkpt lat="46.9424" lon="-1.24784">
        <ele>60</ele>
        <time>2021-04-17T20:51:13Z</time>
      </trkpt>
      <trkpt lat="46.94257" lon="-1.24764">
        <ele>61</ele>
        <time>2021-04-17T20:51:42Z</time>
      </trkpt>
      <trkpt lat="46.9429" lon="-1.24744">
        <ele>62</ele>
        <time>2021-04-17T20:52:30Z</time>
      </trkpt>
      <trkpt lat="46.94312" lon="-1.24688">
        <ele>61</ele>
        <time>2021-04-17T20:53:29Z</time>
      </trkpt>
      <trkpt lat="46.94339" lon="-1.24631">
        <ele>62</ele>
        <time>2021-04-17T20:54:32Z</time>
      </trkpt>
      <trkpt lat="46.9436" lon="-1.24604">
        <ele>62</ele>
        <time>2021-04-17T20:55:09Z</time>
      </trkpt>
      <trkpt lat="46.94423" lon="-1.24536">
        <ele>63</ele>
        <time>2021-04-17T20:56:53Z</time>
      </trkpt>
      <trkpt lat="46.94474" lon="-1.24475">
        <ele>65</ele>
        <time>2021-04-17T20:58:21Z</time>
      </trkpt>
      <trkpt lat="46.94547" lon="-1.24676">
        <ele>69</ele>
        <time>2021-04-17T21:01:49Z</time>
      </trkpt>
      <trkpt lat="46.94606" lon="-1.24883">
        <ele>72</ele>
        <time>2021-04-17T21:05:13Z</time>
      </trkpt>
      <trkpt lat="46.9462" lon="-1.2491">
        <ele>73</ele>
        <time>2021-04-17T21:05:44Z</time>
      </trkpt>
      <trkpt lat="46.94618" lon="-1.24929">
        <ele>73</ele>
        <time>2021-04-17T21:06:01Z</time>
      </trkpt>
      <trkpt lat="46.94647" lon="-1.25062">
        <ele>72</ele>
        <time>2021-04-17T21:08:09Z</time>
      </trkpt>
      <trkpt lat="46.94645" lon="-1.25082">
        <ele>72</ele>
        <time>2021-04-17T21:08:27Z</time>
      </trkpt>
      <trkpt lat="46.94696" lon="-1.25401">
        <ele>69</ele>
        <time>2021-04-17T21:13:26Z</time>
      </trkpt>
      <trkpt lat="46.94712" lon="-1.25486">
        <ele>69</ele>
        <time>2021-04-17T21:14:46Z</time>
      </trkpt>
      <trkpt lat="46.94752" lon="-1.25646">
        <ele>68</ele>
        <time>2021-04-17T21:17:21Z</time>
      </trkpt>
      <trkpt lat="46.94865" lon="-1.25979">
        <ele>66</ele>
        <time>2021-04-17T21:23:00Z</time>
      </trkpt>
      <trkpt lat="46.94926" lon="-1.26215">
        <ele>62</ele>
        <time>2021-04-17T21:26:50Z</time>
      </trkpt>
      <trkpt lat="46.94931" lon="-1.26243">
        <ele>62</ele>
        <time>2021-04-17T21:27:16Z</time>
      </trkpt>
      <trkpt lat="46.94929" lon="-1.26262">
        <ele>62</ele>
        <time>2021-04-17T21:27:34Z</time>
      </trkpt>
      <trkpt lat="46.94899" lon="-1.26331">
        <ele>62</ele>
        <time>2021-04-17T21:28:48Z</time>
      </trkpt>
      <trkpt lat="46.94849" lon="-1.26436">
        <ele>61</ele>
        <time>2021-04-17T21:30:45Z</time>
      </trkpt>
      <trkpt lat="46.94804" lon="-1.265">
        <ele>61</ele>
        <time>2021-04-17T21:32:08Z</time>
      </trkpt>
      <trkpt lat="46.94647" lon="-1.26527">
        <ele>61</ele>
        <time>2021-04-17T21:35:39Z</time>
      </trkpt>
      <trkpt lat="46.9462" lon="-1.26521">
        <ele>59</ele>
        <time>2021-04-17T21:36:16Z</time>
      </trkpt>
      <trkpt lat="46.94542" lon="-1.26468">
        <ele>56</ele>
        <time>2021-04-17T21:38:11Z</time>
      </trkpt>
      <trkpt lat="46.94508" lon="-1.2647">
        <ele>54</ele>
        <time>2021-04-17T21:38:56Z</time>
      </trkpt>
      <trkpt lat="46.94474" lon="-1.265">
        <ele>49</ele>
        <time>2021-04-17T21:39:49Z</time>
      </trkpt>
      <trkpt lat="46.94375" lon="-1.26559">
        <ele>39</ele>
        <time>2021-04-17T21:42:12Z</time>
      </trkpt>
      <trkpt lat="46.94348" lon="-1.26582">
        <ele>37</ele>
        <time>2021-04-17T21:42:53Z</time>
      </trkpt>
      <trkpt lat="46.94335" lon="-1.26599">
        <ele>36</ele>
        <time>2021-04-17T21:43:17Z</time>
      </trkpt>
      <trkpt lat="46.94326" lon="-1.26621">
        <ele>38</ele>
        <time>2021-04-17T21:43:40Z</time>
      </trkpt>
      <trkpt lat="46.94346" lon="-1.26636">
        <ele>37</ele>
        <time>2021-04-17T21:44:10Z</time>
      </trkpt>
      <trkpt lat="46.94396" lon="-1.26712">
        <ele>37</ele>
        <time>2021-04-17T21:45:46Z</time>
      </trkpt>
      <trkpt lat="46.94424" lon="-1.26721">
        <ele>35</ele>
        <time>2021-04-17T21:46:24Z</time>
      </trkpt>
      <trkpt lat="46.94506" lon="-1.26724">
        <ele>35</ele>
        <time>2021-04-17T21:48:14Z</time>
      </trkpt>
      <trkpt lat="46.946" lon="-1.26735">
        <ele>40</ele>
        <time>2021-04-17T21:50:20Z</time>
      </trkpt>
      <trkpt lat="46.94625" lon="-1.26759">
        <ele>43</ele>
        <time>2021-04-17T21:51:00Z</time>
      </trkpt>
      <trkpt lat="46.9464" lon="-1.26805">
        <ele>44</ele>
        <time>2021-04-17T21:51:46Z</time>
      </trkpt>
      <trkpt lat="46.94644" lon="-1.26844">
        <ele>44</ele>
        <time>2021-04-17T21:52:22Z</time>
      </trkpt>
      <trkpt lat="46.94637" lon="-1.26889">
        <ele>44</ele>
        <time>2021-04-17T21:53:04Z</time>
      </trkpt>
      <trkpt lat="46.94583" lon="-1.27022">
        <ele>36</ele>
        <time>2021-04-17T21:55:25Z</time>
      </trkpt>
      <trkpt lat="46.94562" lon="-1.2713">
        <ele>38</ele>
        <time>2021-04-17T21:57:07Z</time>
      </trkpt>
      <trkpt lat="46.9456" lon="-1.27152">
        <ele>38</ele>
        <time>2021-04-17T21:57:27Z</time>
      </trkpt>
      <trkpt lat="46.94574" lon="-1.2717">
        <ele>36</ele>
        <time>2021-04-17T21:57:52Z</time>
      </trkpt>
      <trkpt lat="46.94598" lon="-1.27177">
        <ele>37</ele>
        <time>2021-04-17T21:58:25Z</time>
      </trkpt>
      <trkpt lat="46.94632" lon="-1.27237">
        <ele>38</ele>
        <time>2021-04-17T21:59:36Z</time>
      </trkpt>
      <trkpt lat="46.94658" lon="-1.27317">
        <ele>35</ele>
        <time>2021-04-17T22:00:57Z</time>
      </trkpt>
      <trkpt lat="46.94669" lon="-1.27384">
        <ele>38</ele>
        <time>2021-04-17T22:01:59Z</time>
      </trkpt>
      <trkpt lat="46.94669" lon="-1.27409">
        <ele>39</ele>
        <time>2021-04-17T22:02:22Z</time>
      </trkpt>
      <trkpt lat="46.94655" lon="-1.27438">
        <ele>41</ele>
        <time>2021-04-17T22:02:55Z</time>
      </trkpt>
      <trkpt lat="46.94636" lon="-1.27458">
        <ele>42</ele>
        <time>2021-04-17T22:03:26Z</time>
      </trkpt>
      <trkpt lat="46.94593" lon="-1.27459">
        <ele>41</ele>
        <time>2021-04-17T22:04:23Z</time>
      </trkpt>
      <trkpt lat="46.94519" lon="-1.2743">
        <ele>38</ele>
        <time>2021-04-17T22:06:05Z</time>
      </trkpt>
      <trkpt lat="46.94494" lon="-1.27429">
        <ele>38</ele>
        <time>2021-04-17T22:06:39Z</time>
      </trkpt>
      <trkpt lat="46.94406" lon="-1.27463">
        <ele>36</ele>
        <time>2021-04-17T22:08:40Z</time>
      </trkpt>
      <trkpt lat="46.94408" lon="-1.27522">
        <ele>36</ele>
        <time>2021-04-17T22:09:34Z</time>
      </trkpt>
      <trkpt lat="46.94361" lon="-1.2754">
        <ele>35</ele>
        <time>2021-04-17T22:10:39Z</time>
      </trkpt>
      <trkpt lat="46.94319" lon="-1.27568">
        <ele>36</ele>
        <time>2021-04-17T22:11:41Z</time>
      </trkpt>
      <trkpt lat="46.94355" lon="-1.2764">
        <ele>36</ele>
        <time>2021-04-17T22:13:02Z</time>
      </trkpt>
      <trkpt lat="46.94436" lon="-1.2774">
        <ele>41</ele>
        <time>2021-04-17T22:15:23Z</time>
      </trkpt>
      <trkpt lat="46.9447" lon="-1.27765">
        <ele>42</ele>
        <time>2021-04-17T22:16:14Z</time>
      </trkpt>
      <trkpt lat="46.94519" lon="-1.27783">
        <ele>43</ele>
        <time>2021-04-17T22:17:21Z</time>
      </trkpt>
      <trkpt lat="46.94617" lon="-1.27878">
        <ele>42</ele>
        <time>2021-04-17T22:19:58Z</time>
      </trkpt>
      <trkpt lat="46.94627" lon="-1.27913">
        <ele>40</ele>
        <time>2021-04-17T22:20:33Z</time>
      </trkpt>
      <trkpt lat="46.94672" lon="-1.27975">
        <ele>39</ele>
        <time>2021-04-17T22:21:55Z</time>
      </trkpt>
      <trkpt lat="46.94672" lon="-1.28018">
        <ele>39</ele>
        <time>2021-04-17T22:22:34Z</time>
      </trkpt>
      <trkpt lat="46.94666" lon="-1.28076">
        <ele>38</ele>
        <time>2021-04-17T22:23:28Z</time>
      </trkpt>
      <trkpt lat="46.94615" lon="-1.28194">
        <ele>40</ele>
        <time>2021-04-17T22:25:35Z</time>
      </trkpt>
      <trkpt lat="46.94682" lon="-1.28228">
        <ele>37</ele>
        <time>2021-04-17T22:27:10Z</time>
      </trkpt>
      <trkpt lat="46.94751" lon="-1.28279">
        <ele>36</ele>
        <time>2021-04-17T22:28:53Z</time>
      </trkpt>
      <trkpt lat="46.94662" lon="-1.28504">
        <ele>52</ele>
        <time>2021-04-17T22:32:50Z</time>
      </trkpt>
      <trkpt lat="46.94819" lon="-1.28635">
        <ele>45</ele>
        <time>2021-04-17T22:36:51Z</time>
      </trkpt>
      <trkpt lat="46.94854" lon="-1.28625">
        <ele>43</ele>
        <time>2021-04-17T22:37:38Z</time>
      </trkpt>
      <trkpt lat="46.94886" lon="-1.28609">
        <ele>41</ele>
        <time>2021-04-17T22:38:24Z</time>
      </trkpt>
      <trkpt lat="46.94945" lon="-1.28644">
        <ele>39</ele>
        <time>2021-04-17T22:39:48Z</time>
      </trkpt>
      <trkpt lat="46.94957" lon="-1.2879">
        <ele>37</ele>
        <time>2021-04-17T22:42:02Z</time>
      </trkpt>
      <trkpt lat="46.94837" lon="-1.28884">
        <ele>42</ele>
        <time>2021-04-17T22:45:04Z</time>
      </trkpt>
      <trkpt lat="46.94807" lon="-1.28988">
        <ele>41</ele>
        <time>2021-04-17T22:46:47Z</time>
      </trkpt>
      <trkpt lat="46.94807" lon="-1.2915">
        <ele>39</ele>
        <time>2021-04-17T22:49:14Z</time>
      </trkpt>
      <trkpt lat="46.94824" lon="-1.29226">
        <ele>38</ele>
        <time>2021-04-17T22:50:27Z</time>
      </trkpt>
      <trkpt lat="46.94844" lon="-1.2934">
        <ele>41</ele>
        <time>2021-04-17T22:52:15Z</time>
      </trkpt>
      <trkpt lat="46.94845" lon="-1.29362">
        <ele>41</ele>
        <time>2021-04-17T22:52:35Z</time>
      </trkpt>
      <trkpt lat="46.94839" lon="-1.2937">
        <ele>42</ele>
        <time>2021-04-17T22:52:45Z</time>
      </trkpt>
      <trkpt lat="46.94838" lon="-1.29387">
        <ele>42</ele>
        <time>2021-04-17T22:53:01Z</time>
      </trkpt>
      <trkpt lat="46.94839" lon="-1.29458">
        <ele>43</ele>
        <time>2021-04-17T22:54:06Z</time>
      </trkpt>
      <trkpt lat="46.94821" lon="-1.2948">
        <ele>46</ele>
        <time>2021-04-17T22:54:37Z</time>
      </trkpt>
      <trkpt lat="46.9482" lon="-1.29489">
        <ele>46</ele>
        <time>2021-04-17T22:54:45Z</time>
      </trkpt>
      <trkpt lat="46.94778" lon="-1.29507">
        <ele>50</ele>
        <time>2021-04-17T22:55:44Z</time>
      </trkpt>
      <trkpt lat="46.9476" lon="-1.2951">
        <ele>51</ele>
        <time>2021-04-17T22:56:08Z</time>
      </trkpt>
      <trkpt lat="46.94752" lon="-1.29506">
        <ele>52</ele>
        <time>2021-04-17T22:56:19Z</time>
      </trkpt>
      <trkpt lat="46.94738" lon="-1.29521">
        <ele>52</ele>
        <time>2021-04-17T22:56:42Z</time>
      </trkpt>
      <trkpt lat="46.9473" lon="-1.29525">
        <ele>52</ele>
        <time>2021-04-17T22:56:54Z</time>
      </trkpt>
      <trkpt lat="46.94724" lon="-1.29519">
        <ele>51</ele>
        <time>2021-04-17T22:57:03Z</time>
      </trkpt>
      <trkpt lat="46.94711" lon="-1.29529">
        <ele>50</ele>
        <time>2021-04-17T22:57:23Z</time>
      </trkpt>
      <trkpt lat="46.94697" lon="-1.29582">
        <ele>49</ele>
        <time>2021-04-17T22:58:15Z</time>
      </trkpt>
      <trkpt lat="46.94693" lon="-1.2961">
        <ele>48</ele>
        <time>2021-04-17T22:58:41Z</time>
      </trkpt>
      <trkpt lat="46.94685" lon="-1.2964">
        <ele>47</ele>
        <time>2021-04-17T22:59:10Z</time>
      </trkpt>
      <trkpt lat="46.9467" lon="-1.29717">
        <ele>43</ele>
        <time>2021-04-17T23:00:23Z</time>
      </trkpt>
      <trkpt lat="46.94653" lon="-1.29748">
        <ele>41</ele>
        <time>2021-04-17T23:00:59Z</time>
      </trkpt>
      <trkpt lat="46.94638" lon="-1.2976">
        <ele>38</ele>
        <time>2021-04-17T23:01:22Z</time>
      </trkpt>
      <trkpt lat="46.94623" lon="-1.29767">
        <ele>37</ele>
        <time>2021-04-17T23:01:43Z</time>
      </trkpt>
      <trkpt lat="46.9457" lon="-1.29768">
        <ele>34</ele>
        <time>2021-04-17T23:02:54Z</time>
      </trkpt>
      <trkpt lat="46.94546" lon="-1.29772">
        <ele>35</ele>
        <time>2021-04-17T23:03:26Z</time>
      </trkpt>
      <trkpt lat="46.94537" lon="-1.29653">
        <ele>34</ele>
        <time>2021-04-17T23:05:15Z</time>
      </trkpt>
      <trkpt lat="46.94527" lon="-1.2961">
        <ele>34</ele>
        <time>2021-04-17T23:05:56Z</time>
      </trkpt>
      <trkpt lat="46.94509" lon="-1.29576">
        <ele>33</ele>
        <time>2021-04-17T23:06:36Z</time>
      </trkpt>
      <trkpt lat="46.94439" lon="-1.29475">
        <ele>31</ele>
        <time>2021-04-17T23:08:47Z</time>
      </trkpt>
      <trkpt lat="46.94423" lon="-1.2947">
        <ele>31</ele>
        <time>2021-04-17T23:09:09Z</time>
      </trkpt>
      <trkpt lat="46.9441" lon="-1.29474">
        <ele>32</ele>
        <time>2021-04-17T23:09:26Z</time>
      </trkpt>
      <trkpt lat="46.94395" lon="-1.2949">
        <ele>31</ele>
        <time>2021-04-17T23:09:51Z</time>
      </trkpt>
      <trkpt lat="46.94191" lon="-1.29799">
        <ele>38</ele>
        <time>2021-04-17T23:16:23Z</time>
      </trkpt>
      <trkpt lat="46.94139" lon="-1.29859">
        <ele>38</ele>
        <time>2021-04-17T23:17:51Z</time>
      </trkpt>
      <trkpt lat="46.94075" lon="-1.29927">
        <ele>38</ele>
        <time>2021-04-17T23:19:37Z</time>
      </trkpt>
      <trkpt lat="46.94047" lon="-1.29954">
        <ele>39</ele>
        <time>2021-04-17T23:20:21Z</time>
      </trkpt>
      <trkpt lat="46.93976" lon="-1.30004">
        <ele>40</ele>
        <time>2021-04-17T23:22:06Z</time>
      </trkpt>
      <trkpt lat="46.93964" lon="-1.30003">
        <ele>39</ele>
        <time>2021-04-17T23:22:22Z</time>
      </trkpt>
      <trkpt lat="46.93953" lon="-1.29997">
        <ele>39</ele>
        <time>2021-04-17T23:22:38Z</time>
      </trkpt>
      <trkpt lat="46.93902" lon="-1.29953">
        <ele>38</ele>
        <time>2021-04-17T23:23:57Z</time>
      </trkpt>
      <trkpt lat="46.93892" lon="-1.29951">
        <ele>39</ele>
        <time>2021-04-17T23:24:11Z</time>
      </trkpt>
      <trkpt lat="46.93873" lon="-1.29986">
        <ele>41</ele>
        <time>2021-04-17T23:24:51Z</time>
      </trkpt>
      <trkpt lat="46.93841" lon="-1.30033">
        <ele>45</ele>
        <time>2021-04-17T23:25:52Z</time>
      </trkpt>
      <trkpt lat="46.93834" lon="-1.30039">
        <ele>45</ele>
        <time>2021-04-17T23:26:03Z</time>
      </trkpt>
      <trkpt lat="46.93826" lon="-1.30039">
        <ele>46</ele>
        <time>2021-04-17T23:26:13Z</time>
      </trkpt>
      <trkpt lat="46.93798" lon="-1.30023">
        <ele>48</ele>
        <time>2021-04-17T23:26:53Z</time>
      </trkpt>
      <trkpt lat="46.93791" lon="-1.30023">
        <ele>48</ele>
        <time>2021-04-17T23:27:03Z</time>
      </trkpt>
      <trkpt lat="46.93785" lon="-1.29994">
        <ele>48</ele>
        <time>2021-04-17T23:27:30Z</time>
      </trkpt>
      <trkpt lat="46.9375" lon="-1.29905">
        <ele>52</ele>
        <time>2021-04-17T23:29:04Z</time>
      </trkpt>
      <trkpt lat="46.93742" lon="-1.29866">
        <ele>52</ele>
        <time>2021-04-17T23:29:41Z</time>
      </trkpt>
      <trkpt lat="46.93743" lon="-1.29848">
        <ele>51</ele>
        <time>2021-04-17T23:29:57Z</time>
      </trkpt>
      <trkpt lat="46.93757" lon="-1.29826">
        <ele>50</ele>
        <time>2021-04-17T23:30:25Z</time>
      </trkpt>
      <trkpt lat="46.93774" lon="-1.29814">
        <ele>47</ele>
        <time>2021-04-17T23:30:50Z</time>
      </trkpt>
      <trkpt lat="46.93792" lon="-1.29783">
        <ele>43</ele>
        <time>2021-04-17T23:31:27Z</time>
      </trkpt>
      <trkpt lat="46.93796" lon="-1.2976">
        <ele>41</ele>
        <time>2021-04-17T23:31:49Z</time>
      </trkpt>
      <trkpt lat="46.93795" lon="-1.29731">
        <ele>41</ele>
        <time>2021-04-17T23:32:15Z</time>
      </trkpt>
      <trkpt lat="46.93766" lon="-1.2967">
        <ele>44</ele>
        <time>2021-04-17T23:33:23Z</time>
      </trkpt>
      <trkpt lat="46.93713" lon="-1.29531">
        <ele>44</ele>
        <time>2021-04-17T23:35:48Z</time>
      </trkpt>
      <trkpt lat="46.93709" lon="-1.29508">
        <ele>45</ele>
        <time>2021-04-17T23:36:10Z</time>
      </trkpt>
      <trkpt lat="46.93708" lon="-1.29484">
        <ele>43</ele>
        <time>2021-04-17T23:36:32Z</time>
      </trkpt>
      <trkpt lat="46.93698" lon="-1.29462">
        <ele>42</ele>
        <time>2021-04-17T23:36:56Z</time>
      </trkpt>
      <trkpt lat="46.93647" lon="-1.29406">
        <ele>40</ele>
        <time>2021-04-17T23:38:21Z</time>
      </trkpt>
      <trkpt lat="46.93615" lon="-1.29394">
        <ele>41</ele>
        <time>2021-04-17T23:39:05Z</time>
      </trkpt>
      <trkpt lat="46.93611" lon="-1.2939">
        <ele>41</ele>
        <time>2021-04-17T23:39:11Z</time>
      </trkpt>
      <trkpt lat="46.93606" lon="-1.29368">
        <ele>39</ele>
        <time>2021-04-17T23:39:32Z</time>
      </trkpt>
      <trkpt lat="46.93606" lon="-1.29321">
        <ele>36</ele>
        <time>2021-04-17T23:40:15Z</time>
      </trkpt>
      <trkpt lat="46.93616" lon="-1.2923">
        <ele>34</ele>
        <time>2021-04-17T23:41:39Z</time>
      </trkpt>
      <trkpt lat="46.93616" lon="-1.29208">
        <ele>34</ele>
        <time>2021-04-17T23:41:59Z</time>
      </trkpt>
      <trkpt lat="46.93613" lon="-1.29198">
        <ele>34</ele>
        <time>2021-04-17T23:42:09Z</time>
      </trkpt>
      <trkpt lat="46.93608" lon="-1.29193">
        <ele>34</ele>
        <time>2021-04-17T23:42:17Z</time>
      </trkpt>
      <trkpt lat="46.93602" lon="-1.29192">
        <ele>34</ele>
        <time>2021-04-17T23:42:25Z</time>
      </trkpt>
      <trkpt lat="46.93565" lon="-1.29197">
        <ele>33</ele>
        <time>2021-04-17T23:43:15Z</time>
      </trkpt>
      <trkpt lat="46.93555" lon="-1.29194">
        <ele>33</ele>
        <time>2021-04-17T23:43:29Z</time>
      </trkpt>
      <trkpt lat="46.93542" lon="-1.29189">
        <ele>33</ele>
        <time>2021-04-17T23:43:46Z</time>
      </trkpt>
      <trkpt lat="46.93504" lon="-1.29159">
        <ele>33</ele>
        <time>2021-04-17T23:44:44Z</time>
      </trkpt>
      <trkpt lat="46.93474" lon="-1.29141">
        <ele>35</ele>
        <time>2021-04-17T23:45:27Z</time>
      </trkpt>
      <trkpt lat="46.93442" lon="-1.29134">
        <ele>38</ele>
        <time>2021-04-17T23:46:11Z</time>
      </trkpt>
      <trkpt lat="46.93342" lon="-1.29103">
        <ele>45</ele>
        <time>2021-04-17T23:48:27Z</time>
      </trkpt>
      <trkpt lat="46.93343" lon="-1.29093">
        <ele>45</ele>
        <time>2021-04-17T23:48:36Z</time>
      </trkpt>
      <trkpt lat="46.93374" lon="-1.29052">
        <ele>43</ele>
        <time>2021-04-17T23:49:32Z</time>
      </trkpt>
      <trkpt lat="46.93409" lon="-1.29009">
        <ele>41</ele>
        <time>2021-04-17T23:50:33Z</time>
      </trkpt>
      <trkpt lat="46.93424" lon="-1.29">
        <ele>39</ele>
        <time>2021-04-17T23:50:54Z</time>
      </trkpt>
      <trkpt lat="46.93434" lon="-1.29">
        <ele>39</ele>
        <time>2021-04-17T23:51:08Z</time>
      </trkpt>
      <trkpt lat="46.93445" lon="-1.29008">
        <ele>38</ele>
        <time>2021-04-17T23:51:24Z</time>
      </trkpt>
      <trkpt lat="46.9346" lon="-1.29013">
        <ele>37</ele>
        <time>2021-04-17T23:51:45Z</time>
      </trkpt>
      <trkpt lat="46.93502" lon="-1.29013">
        <ele>33</ele>
        <time>2021-04-17T23:52:41Z</time>
      </trkpt>
      <trkpt lat="46.93564" lon="-1.29009">
        <ele>34</ele>
        <time>2021-04-17T23:54:04Z</time>
      </trkpt>
      <trkpt lat="46.93616" lon="-1.29017">
        <ele>36</ele>
        <time>2021-04-17T23:55:13Z</time>
      </trkpt>
      <trkpt lat="46.93631" lon="-1.28529">
        <ele>52</ele>
        <time>2021-04-18T00:02:38Z</time>
      </trkpt>
      <trkpt lat="46.93666" lon="-1.28466">
        <ele>53</ele>
        <time>2021-04-18T00:03:52Z</time>
      </trkpt>
      <trkpt lat="46.93844" lon="-1.28709">
        <ele>53</ele>
        <time>2021-04-18T00:09:17Z</time>
      </trkpt>
      <trkpt lat="46.93851" lon="-1.28727">
        <ele>53</ele>
        <time>2021-04-18T00:09:36Z</time>
      </trkpt>
      <trkpt lat="46.93788" lon="-1.28778">
        <ele>51</ele>
        <time>2021-04-18T00:11:12Z</time>
      </trkpt>
      <trkpt lat="46.93733" lon="-1.28817">
        <ele>48</ele>
        <time>2021-04-18T00:12:34Z</time>
      </trkpt>
      <trkpt lat="46.93704" lon="-1.28876">
        <ele>45</ele>
        <time>2021-04-18T00:13:40Z</time>
      </trkpt>
      <trkpt lat="46.93709" lon="-1.28914">
        <ele>45</ele>
        <time>2021-04-18T00:14:15Z</time>
      </trkpt>
      <trkpt lat="46.93778" lon="-1.2894">
        <ele>47</ele>
        <time>2021-04-18T00:15:50Z</time>
      </trkpt>
      <trkpt lat="46.93824" lon="-1.28983">
        <ele>46</ele>
        <time>2021-04-18T00:17:03Z</time>
      </trkpt>
      <trkpt lat="46.93849" lon="-1.28983">
        <ele>47</ele>
        <time>2021-04-18T00:17:36Z</time>
      </trkpt>
      <trkpt lat="46.93909" lon="-1.29056">
        <ele>47</ele>
        <time>2021-04-18T00:19:21Z</time>
      </trkpt>
      <trkpt lat="46.93972" lon="-1.29171">
        <ele>48</ele>
        <time>2021-04-18T00:21:35Z</time>
      </trkpt>
      <trkpt lat="46.93989" lon="-1.2923">
        <ele>48</ele>
        <time>2021-04-18T00:22:33Z</time>
      </trkpt>
      <trkpt lat="46.94037" lon="-1.29344">
        <ele>47</ele>
        <time>2021-04-18T00:24:35Z</time>
      </trkpt>
      <trkpt lat="46.94099" lon="-1.29239">
        <ele>53</ele>
        <time>2021-04-18T00:26:42Z</time>
      </trkpt>
      <trkpt lat="46.94245" lon="-1.29405">
        <ele>46</ele>
        <time>2021-04-18T00:30:48Z</time>
      </trkpt>
      <trkpt lat="46.94293" lon="-1.29373">
        <ele>46</ele>
        <time>2021-04-18T00:31:59Z</time>
      </trkpt>
      <trkpt lat="46.94254" lon="-1.29333">
        <ele>51</ele>
        <time>2021-04-18T00:33:02Z</time>
      </trkpt>
      <trkpt lat="46.94263" lon="-1.29322">
        <ele>51</ele>
        <time>2021-04-18T00:33:18Z</time>
      </trkpt>
    </trkseg>
  </trk>
</gpx>